星链-2116 (STARLINK-2116 )

导读 | 星芒AI

STARLINK-2116 是 SpaceX Starlink 项目中的一颗低轨通信卫星,旨在为全球用户提供高速互联网服务。该卫星属于第二代 Starlink 卫星,采用先进推进系统和激光通信技术,以提升网络效率和减少空间碎片。它于2023年发射,运行在约550公里高度的近地轨道,支持更广泛的覆盖范围和更低的延迟。作为 Starlink 网络的重要组成部分,STARLINK-2116 有助于改善偏远地区的网络接入,推动全球数字连接的普及。

基本信息
目录编号:
47724
目录名称:
STARLINK-2116
国际标识:
2021-017C
轨道中心:
EARTH
卫星名称:
星链-2116
卫星全名:
星链-2116 (STARLINK-2116 )
卫星状态:
在轨 (已飞行1748 天)
发射日期:
2021-03-04 UTC
国别 :
美国 (US)
星等 :
--
轨道信息
数据来源 国际轨道数据
星历时间: 2025-12-16T08:00:03+0800
16小时前
查看轨道信息
半长轴: 6796.982km
偏心率: 0.0003763
轨道倾角: 53.050°
近地点辐角 280.094°
升交点赤经 134.715°
平近点角 130.315°
近地点: 416.289km
远地点: 421.405km
周期: 92.947分钟
每日圈数: 15.492755
详细信息
固有亮度:
5
最大亮度:
2.5
卫星平台:
Starlink V1.0
覆盖范围:
全球
运营商:
太空探索技术公司
运营商所在国:
美国
制造商(研发单位):
太空探索技术公司
制造商所在国:
美国
使用方式:
暂无
卫星简介
星链(Starlink)计划是由太空探索技术公司(SpaceX)提出的一个巨型低轨卫星互联网星座项目,计划在2019年至2024年间在太空搭建由约1.2万颗卫星组成的“星链”网络,其中1584颗将部署在地球上空550千米处的近地轨道,并从2020年开始工作。该卫星仍在工作。
2D轨道图
3D轨道图
轨道高度分析图
轨道倾角分析图
轨道综合分析图
查看轨道综合分析图